Find Starlink 31314

NORAD ID: 58967 Int'l Des: 2024-031 Owner: SPXS Country: US Constellation: starlink operational
LEOCIRCULAR

当前视图

正在加载3D地球...

About Starlink 31314

Starlink 31314 (NORAD 58967) is a starlink constellation satellite (v2 mini) launched Feb 15, 2024 by SPXS of US. It operates in LEO, CIRCULAR orbit with a mass of 730.00 kg.

关于 Starlink 31314

正在加载描述...

即将过境

Passes for default location (London). Set your location on the main map for personalized predictions.

高度历史

Loading altitude history...

两行轨道根数

1 58967U 24031C 26170.36436388 .00004002 00000-0 14731-3 0 9997
2 58967 53.1583 184.1695 0001177 95.9971 264.1164 15.30167574132102
Epoch: Jun 19, 2026 • Age: 21 hours

当前状态

高度 475.3 km
速度 7.63 km/s
星下点 6.81°N, 1.53°W
发射日期 Feb 15, 2024
运行时间 2.3 years
类型 internet

技术详情

分类 Payload
质量 730.00 kg
干质量 700.00 kg
总质量 730.00 kg
长度 0.30 m
直径 4.10 m
跨度 29.00 m
形状 Box + pan
制造商 SPXS
平台类型 Starlink V2M
阶段状态 In Orbit
所有者/国家 SPXS/US

Most Searched